Vorticity
4 4 4 4 3 3 4 5 6 7 8 9 12 14 16 18 19 19 18 15 12 10 7 6 5 5 6 7 8 9 10 11 11 11 11 10 8 8 7 7 8 8 9 9 9 9 8 7 6 6 5 4 4 4 4 4 5 4 4 3 4 6 7 7 10 13 13 9 6
4 4 4 4 4 4 5 7 8 9 10 12 14 16 18 19 19 17 15 13 10 8 6 5 5 5 6 7 8 9 10 11 11 10 9 8 7 7 7 7 8 9 10 10 10 10 9 8 7 6 6 5 6 6 6 5 5 4 2 0 2 4 6 7 11 13 14 12 8
4 4 4 4 5 6 8 10 11 12 13 14 16 17 18 18 17 15 12 10 8 6 5 5 5 6 7 8 9 9 10 10 10 9 8 8 7 8 8 9 10 10 10 10 10 10 9 8 7 7 6 6 6 7 7 7 6 5 3 1 2 4 6 8 12 13 13 12 8
4 4 4 5 7 8 10 12 13 13 14 16 16 17 17 16 14 12 10 8 6 6 5 5 6 6 7 8 9 9 9 9 8 8 8 8 9 9 10 11 11 11 11 11 10 10 9 8 7 7 6 7 7 7 8 9 8 7 6 4 4 5 7 10 13 14 13 10 4
4 4 5 7 9 11 13 13 14 14 14 15 15 15 15 14 12 10 8 7 6 6 5 6 6 7 8 8 8 8 8 8 9 9 10 10 11 11 12 12 12 12 12 11 10 9 9 8 8 8 8 8 8 8 10 11 11 10 8 4 5 7 10 11 12 12 9 4 -1
4 5 7 9 12 13 14 14 13 13 13 13 13 13 13 12 10 9 7 6 5 5 5 6 7 7 8 8 8 8 9 9 10 11 11 12 12 13 13 13 13 12 12 11 11 10 9 9 9 9 9 9 9 9 10 10 12 10 7 7 10 11 9 6 5 4 1 -4 -2
6 7 10 12 14 15 14 13 12 12 12 12 13 13 12 10 9 7 6 5 5 5 6 6 7 7 7 8 8 9 10 11 11 12 12 12 13 13 13 13 13 13 12 12 11 10 9 8 9 9 9 9 9 10 10 10 11 10 10 13 14 11 6 2 0 -2 -5 -4 2
7 10 13 16 16 15 13 11 10 10 11 12 12 12 10 9 7 6 5 5 6 6 6 7 7 7 8 9 10 11 12 12 12 12 12 12 12 12 12 12 12 12 11 11 10 9 9 8 8 9 10 10 10 10 11 10 11 12 13 15 14 11 8 7 7 6 6 9 12
10 13 16 18 16 13 11 9 8 9 10 11 11 11 9 7 6 5 5 6 6 6 7 7 7 8 9 10 12 12 13 13 12 12 11 11 11 11 11 11 11 11 10 9 8 8 8 8 8 8 9 9 10 11 12 12 13 13 14 13 12 12 12 12 12 13 14 16 16
14 17 18 17 14 11 8 7 7 8 9 10 10 9 8 6 6 5 6 6 6 7 7 7 8 10 11 12 13 13 13 12 11 11 11 10 10 10 10 10 9 9 9 9 8 8 8 8 9 9 10 10 10 12 13 13 13 13 13 12 12 12 12 11 11 11 12 12 12
18 18 18 15 11 8 7 6 7 8 9 10 9 8 7 6 6 6 6 6 7 7 7 8 10 12 13 13 13 12 12 11 11 10 10 10 10 10 9 8 8 8 8 8 8 8 8 9 10 10 11 11 12 12 12 12 12 12 12 11 11 11 10 9 9 10 11 11 11
18 17 15 11 8 6 6 6 7 8 9 10 9 7 6 6 6 6 6 6 6 7 9 10 12 13 13 13 12 11 11 10 10 10 10 10 10 9 9 8 8 8 8 8 8 8 9 10 11 11 11 12 12 13 13 12 12 12 11 10 9 9 8 7 8 10 10 10 10
17 15 11 8 6 5 5 6 7 8 9 9 8 7 6 6 6 6 6 6 7 9 11 13 13 13 12 12 11 11 10 10 10 10 10 9 9 9 9 8 8 9 9 9 9 10 11 12 12 12 12 12 12 13 13 12 12 10 8 6 6 7 8 9 9 10 9 9 8
14 11 8 5 4 5 6 7 8 9 9 9 7 6 6 6 6 6 6 7 9 11 12 13 12 12 11 11 10 10 10 10 10 10 9 9 9 9 9 9 9 10 10 10 11 12 13 13 13 13 13 12 12 12 11 11 9 8 6 6 7 8 10 10 9 8 7 6 5
11 8 5 4 4 5 6 7 8 9 9 8 7 6 6 6 6 6 7 9 11 12 13 12 11 11 10 10 10 10 10 10 10 9 9 9 10 10 11 10 11 11 11 11 12 13 13 13 13 13 12 11 10 9 8 7 7 7 7 7 8 8 8 8 7 6 4 4 4
8 6 4 4 5 6 7 8 9 9 9 8 7 6 6 6 6 7 8 11 12 13 12 11 10 10 10 10 10 10 9 9 9 9 10 10 11 11 12 12 12 12 12 12 13 13 13 12 11 10 10 9 7 6 6 6 6 7 7 8 7 7 6 6 5 4 4 3 3
6 4 4 5 6 7 8 9 10 10 10 8 7 6 6 6 6 8 11 12 12 11 10 10 10 10 10 10 10 9 9 9 9 10 11 12 13 13 13 13 12 12 12 12 12 11 10 10 9 8 7 7 6 6 6 6 6 7 7 6 6 6 5 5 4 4 3 3 3
5 5 6 6 8 9 10 11 11 11 10 8 7 6 6 6 8 10 12 12 11 10 10 10 10 10 9 9 9 8 8 9 10 12 13 14 14 14 13 13 12 12 12 11 10 9 8 7 6 6 6 6 6 6 6 6 6 6 6 6 6 5 4 4 4 3 3 3 3
6 6 7 9 10 11 12 13 12 11 9 7 6 6 6 8 10 11 11 10 10 9 10 10 9 9 8 8 8 8 9 11 12 13 14 15 15 14 13 12 11 11 10 9 8 7 6 5 5 5 5 6 6 7 7 7 6 6 6 5 4 4 4 3 3 3 3 3 4
8 9 10 12 13 14 14 14 12 10 8 6 6 6 8 10 11 11 10 9 9 9 10 9 8 8 7 7 8 9 11 13 14 15 16 16 14 13 11 10 10 9 8 7 6 5 5 5 5 6 6 6 6 7 7 6 6 5 4 4 3 3 3 3 3 3 4 4 4
11 12 13 15 16 16 15 13 11 8 6 5 6 7 9 11 11 10 8 8 9 9 10 9 8 7 7 8 10 12 13 15 15 16 15 14 13 11 10 9 8 7 6 5 5 5 6 6 6 6 6 7 6 6 6 5 4 4 3 3 3 3 3 3 3 4 4 4 5
14 16 17 18 17 15 13 11 9 7 6 5 7 9 10 11 9 8 8 8 9 10 9 8 7 7 8 10 13 14 14 15 16 15 14 13 11 9 8 7 6 5 5 5 6 6 6 7 6 6 6 6 6 5 4 4 3 3 3 2 2 3 3 3 4 4 5 5 6
18 18 18 17 15 13 10 8 6 5 5 6 8 10 10 9 8 7 8 9 10 10 9 7 7 9 11 14 15 14 14 14 14 14 13 11 9 7 6 5 4 4 5 6 6 6 6 6 6 6 6 5 4 4 4 3 3 3 2 2 2 3 3 4 4 5 6 7 8
20 19 17 14 11 9 7 6 5 5 6 8 9 10 9 8 7 8 9 11 10 9 8 8 9 12 14 15 15 14 13 12 12 12 11 10 7 5 4 3 4 5 6 7 7 7 7 6 6 5 5 4 4 4 3 3 3 2 2 2 3 4 4 5 6 6 7 8 9
18 15 12 9 7 6 5 5 5 6 7 9 10 9 8 7 8 9 11 11 10 9 9 10 13 14 15 15 13 13 12 12 11 9 8 6 5 4 3 3 5 6 7 7 7 7 6 6 5 4 4 4 3 3 3 2 2 2 3 3 4 5 6 6 7 8 8 9 9
12 10 8 6 5 5 5 5 6 7 9 9 9 8 8 8 10 11 12 11 10 10 11 13 15 15 14 12 11 12 12 12 10 8 5 3 2 3 4 6 7 8 8 7 6 6 5 4 4 4 4 3 3 2 2 2 2 3 4 4 5 6 6 7 8 8 9 9 9
8 6 5 4 4 5 6 6 8 9 9 9 8 8 8 10 12 13 13 11 11 12 14 15 15 13 11 10 10 11 11 9 7 6 4 2 2 3 5 7 8 8 7 6 6 5 4 4 4 3 3 3 3 2 2 2 3 4 5 6 6 7 8 8 9 9 9 9 10
6 5 4 4 5 6 7 8 9 9 9 8 8 9 10 13 14 14 13 12 13 14 14 15 13 11 10 10 10 9 7 5 4 4 3 3 4 6 7 8 8 7 6 5 5 4 4 3 3 3 3 3 2 3 3 4 4 5 6 7 7 8 8 9 10 10 10 10 10
4 4 4 5 6 7 8 10 10 9 8 8 9 12 14 15 15 14 14 14 14 14 14 13 10 10 10 11 9 7 5 4 3 3 3 5 7 8 8 8 7 6 5 4 4 4 3 3 3 3 3 3 3 3 4 5 6 6 7 7 8 9 9 10 10 10 11 11 11
4 4 6 7 8 10 11 11 10 9 9 10 13 15 16 15 14 15 15 16 15 14 12 9 8 9 10 8 6 4 4 4 3 4 5 7 8 8 7 6 5 5 4 4 4 4 3 3 3 3 3 3 4 4 5 6 6 7 8 8 9 9 10 10 10 11 11 12 13
4 6 8 9 11 11 11 10 10 10 12 14 17 17 16 15 15 16 17 16 13 10 8 7 8 8 7 5 4 4 4 3 5 6 7 7 7 6 5 5 4 4 4 4 4 3 3 3 3 3 3 4 4 5 6 7 7 8 8 9 9 10 10 10 11 12 12 13 13
6 8 10 11 12 11 10 10 11 13 16 18 18 16 15 16 17 17 16 13 9 6 6 7 7 6 5 4 5 5 5 5 6 7 7 6 6 5 4 4 4 4 4 4 4 3 3 3 3 3 4 5 6 6 7 8 8 9 9 9 10 10 10 11 12 13 13 14 13
8 10 11 12 11 10 10 11 14 17 19 18 16 16 16 17 18 16 13 9 6 5 5 5 6 5 5 4 5 6 6 7 7 7 6 5 4 4 4 4 4 4 4 4 3 3 3 3 3 4 5 6 7 7 8 8 9 9 9 9 10 10 11 12 13 13 13 13 13
11 12 12 11 11 11 12 15 18 19 18 16 15 16 17 18 16 13 8 5 4 4 4 5 5 5 5 4 5 6 7 7 7 6 5 4 4 4 4 4 4 4 4 3 3 3 3 4 4 5 6 7 7 8 8 9 9 9 10 10 10 11 12 13 13 13 13 12 12
13 13 12 11 12 13 16 19 19 18 16 14 16 17 18 17 13 8 4 2 2 3 5 6 6 6 6 6 7 7 7 6 6 5 4 4 4 4 4 4 4 4 3 3 3 3 4 5 6 6 7 8 8 8 9 9 9 10 10 10 11 12 13 13 13 13 12 11 10
13 13 12 12 14 16 19 19 17 15 14 15 17 18 17 14 9 4 1 0 2 4 6 6 6 7 8 8 8 8 7 6 5 4 4 4 4 4 4 4 4 3 3 3 4 4 5 6 7 7 8 8 8 9 9 9 10 10 10 11 12 13 13 13 12 12 11 10 10
12 12 13 14 17 18 18 16 14 14 15 17 18 17 13 8 4 1 0 1 3 6 7 7 8 8 9 8 8 7 6 5 4 4 4 4 4 4 4 4 3 3 3 4 4 5 6 7 8 8 8 8 9 9 9 10 10 10 11 12 13 13 13 12 11 10 10 9 9
12 13 15 17 18 17 15 13 13 14 16 18 17 14 9 4 1 0 1 3 5 6 7 8 9 9 8 7 6 6 5 4 4 4 4 4 4 4 4 4 3 3 4 5 6 6 7 8 8 8 9 9 9 9 9 10 10 11 12 13 13 12 12 11 10 9 9 8 8
13 15 16 18 16 14 13 12 14 16 18 17 14 10 5 1 0 1 2 4 6 6 7 8 8 8 7 6 6 5 5 4 4 4 4 4 4 4 4 4 4 4 4 6 6 7 8 8 8 9 9 9 9 9 10 10 11 12 13 13 12 11 11 10 9 9 8 8 7
14 16 16 16 13 12 12 13 16 18 18 15 11 6 2 -1 0 2 3 5 6 7 8 8 8 7 6 6 5 4 4 4 4 4 4 4 4 4 4 4 4 5 6 6 7 8 8 8 8 9 9 9 10 10 10 11 12 12 13 12 11 10 9 9 9 8 7 7 6
15 15 15 13 11 11 13 16 18 18 16 13 8 3 -0 -1 1 3 4 6 7 8 9 9 8 7 6 5 4 4 4 4 4 4 4 4 4 4 4 4 5 6 6 7 8 8 8 8 9 9 9 10 10 10 11 11 12 13 12 11 10 9 8 7 8 8 7 6 6
Height
3087 3087 3088 3089 3090 3090 3091 3092 3092 3093 3094 3095 3095 3096 3097 3097 3098 3099 3099 3100 3101 3101 3101 3102 3102 3102 3102 3103 3103 3104 3104 3105 3105 3105 3105 3105 3105 3105 3106 3106 3106 3107 3107 3107 3107 3107 3107 3107 3107 3107 3107 3107 3107 3107 3107 3107 3107 3107 3107 3107 3107 3107 3107 3107 3107 3106 3106 3106 3106
3085 3086 3087 3087 3088 3088 3089 3090 3090 3091 3092 3093 3093 3094 3095 3095 3096 3097 3097 3098 3099 3099 3100 3100 3100 3101 3101 3102 3102 3102 3103 3103 3103 3104 3103 3103 3103 3104 3104 3104 3105 3105 3105 3106 3106 3106 3106 3106 3106 3106 3106 3106 3106 3106 3105 3105 3105 3105 3105 3105 3105 3106 3106 3106 3105 3105 3104 3105 3104
3083 3084 3085 3085 3086 3086 3087 3088 3088 3089 3090 3091 3092 3092 3093 3094 3094 3095 3096 3097 3097 3098 3098 3098 3099 3099 3100 3100 3101 3101 3102 3102 3102 3102 3102 3102 3102 3102 3102 3103 3103 3103 3104 3104 3104 3104 3104 3104 3104 3104 3104 3104 3104 3104 3104 3103 3104 3104 3104 3104 3104 3104 3104 3104 3104 3103 3103 3103 3103
3081 3082 3082 3083 3084 3084 3085 3086 3087 3088 3088 3089 3090 3090 3091 3092 3093 3093 3094 3095 3096 3096 3096 3097 3097 3098 3098 3099 3099 3100 3100 3100 3100 3100 3100 3100 3100 3101 3101 3101 3101 3102 3102 3102 3102 3102 3103 3103 3103 3103 3103 3103 3103 3102 3102 3102 3103 3103 3103 3103 3102 3102 3102 3102 3102 3102 3102 3101 3101
3079 3080 3081 3081 3082 3083 3084 3084 3085 3086 3087 3087 3088 3088 3089 3090 3091 3092 3092 3093 3094 3094 3095 3095 3096 3096 3097 3097 3098 3098 3099 3099 3099 3099 3099 3099 3099 3099 3099 3099 3100 3100 3100 3101 3101 3101 3101 3102 3102 3102 3102 3102 3102 3101 3101 3101 3101 3102 3102 3102 3101 3101 3100 3100 3100 3100 3100 3099 3099
3077 3078 3079 3080 3080 3081 3082 3082 3083 3084 3085 3085 3086 3087 3087 3088 3089 3090 3091 3092 3092 3092 3093 3093 3094 3095 3096 3096 3097 3097 3097 3097 3097 3097 3097 3097 3097 3097 3098 3098 3098 3098 3099 3099 3099 3100 3100 3100 3100 3100 3100 3100 3100 3100 3100 3100 3100 3100 3101 3100 3100 3099 3099 3098 3098 3098 3098 3098 3098
3075 3076 3077 3078 3078 3079 3080 3081 3082 3082 3083 3084 3084 3085 3086 3087 3088 3089 3089 3090 3090 3091 3092 3092 3093 3093 3094 3095 3095 3095 3096 3096 3096 3096 3096 3096 3096 3096 3096 3097 3097 3097 3097 3097 3098 3098 3098 3098 3098 3098 3098 3098 3098 3098 3098 3098 3099 3099 3099 3098 3098 3097 3097 3098 3098 3098 3098 3098 3098
3073 3074 3075 3076 3077 3077 3078 3079 3080 3081 3082 3082 3083 3084 3085 3086 3086 3087 3087 3088 3089 3089 3090 3091 3092 3092 3093 3093 3093 3094 3094 3094 3094 3094 3094 3095 3095 3095 3095 3095 3095 3096 3096 3096 3096 3097 3097 3097 3097 3097 3097 3097 3097 3097 3097 3097 3097 3097 3097 3097 3096 3096 3097 3097 3097 3097 3097 3097 3096
3071 3072 3073 3074 3075 3076 3077 3077 3078 3079 3080 3081 3082 3082 3083 3084 3085 3085 3086 3087 3087 3088 3089 3090 3090 3091 3091 3092 3092 3092 3092 3092 3092 3093 3093 3093 3093 3094 3094 3094 3094 3094 3094 3095 3095 3095 3095 3095 3095 3095 3095 3095 3095 3095 3095 3095 3095 3095 3095 3095 3094 3095 3095 3095 3095 3095 3094 3093 3092
3069 3070 3071 3072 3073 3074 3075 3076 3077 3078 3078 3079 3080 3081 3082 3082 3083 3084 3084 3085 3086 3087 3087 3088 3089 3089 3090 3090 3090 3090 3091 3091 3091 3092 3092 3092 3092 3092 3092 3092 3093 3093 3093 3093 3093 3093 3094 3094 3094 3094 3094 3094 3093 3093 3093 3093 3093 3093 3093 3093 3094 3093 3093 3093 3093 3092 3092 3091 3091
3067 3068 3069 3070 3072 3072 3073 3074 3075 3076 3077 3078 3079 3079 3080 3081 3081 3082 3083 3084 3085 3085 3086 3087 3087 3088 3088 3088 3089 3089 3089 3090 3090 3090 3090 3090 3091 3091 3091 3091 3091 3092 3092 3092 3092 3092 3092 3092 3092 3092 3092 3092 3092 3092 3092 3092 3092 3092 3092 3092 3092 3092 3092 3092 3091 3091 3090 3090 3090
3066 3067 3068 3069 3070 3071 3072 3073 3074 3075 3076 3077 3077 3078 3078 3079 3080 3081 3082 3082 3083 3084 3085 3086 3086 3087 3087 3087 3087 3087 3088 3088 3088 3089 3089 3089 3089 3089 3090 3090 3090 3090 3090 3090 3091 3091 3091 3091 3091 3091 3091 3091 3091 3091 3091 3091 3091 3091 3091 3091 3091 3091 3091 3090 3090 3090 3089 3089 3088
3064 3065 3066 3067 3068 3069 3070 3071 3072 3073 3074 3075 3076 3077 3077 3078 3078 3079 3080 3081 3082 3083 3084 3084 3085 3085 3085 3086 3086 3086 3087 3087 3087 3087 3087 3087 3088 3088 3088 3088 3088 3089 3089 3089 3089 3089 3089 3089 3090 3090 3090 3090 3090 3090 3090 3090 3090 3090 3090 3090 3090 3090 3090 3089 3089 3089 3088 3088 3087
3062 3063 3064 3065 3067 3067 3069 3070 3071 3072 3073 3074 3074 3075 3076 3076 3077 3078 3079 3080 3081 3082 3082 3083 3083 3083 3084 3084 3084 3085 3085 3085 3085 3086 3086 3086 3087 3087 3087 3087 3087 3087 3087 3087 3088 3088 3088 3088 3088 3088 3088 3089 3089 3089 3089 3089 3089 3089 3089 3089 3088 3088 3088 3088 3088 3088 3087 3087 3086
3060 3061 3062 3064 3065 3066 3067 3068 3069 3070 3072 3072 3073 3074 3074 3075 3076 3077 3078 3079 3080 3080 3081 3082 3082 3082 3082 3083 3083 3083 3083 3084 3084 3084 3085 3085 3085 3085 3086 3086 3086 3086 3086 3086 3087 3087 3087 3087 3087 3087 3087 3087 3088 3088 3088 3088 3088 3088 3088 3088 3088 3088 3088 3087 3087 3087 3086 3086 3085
3058 3060 3061 3062 3063 3064 3066 3067 3068 3069 3070 3071 3072 3072 3073 3074 3075 3076 3077 3077 3078 3079 3080 3080 3081 3081 3081 3082 3082 3082 3082 3082 3082 3083 3083 3084 3084 3084 3084 3084 3085 3085 3085 3085 3086 3086 3086 3086 3086 3087 3087 3087 3087 3087 3087 3087 3087 3087 3087 3087 3087 3087 3087 3087 3086 3086 3085 3084 3084
3056 3058 3059 3060 3062 3063 3064 3065 3067 3067 3069 3069 3070 3071 3072 3072 3074 3075 3076 3077 3077 3078 3078 3079 3080 3080 3080 3080 3080 3080 3081 3081 3082 3082 3082 3082 3083 3083 3083 3083 3083 3084 3084 3084 3084 3085 3085 3085 3086 3086 3086 3086 3086 3087 3087 3087 3087 3087 3087 3087 3087 3086 3086 3086 3085 3085 3084 3083 3082
3055 3056 3057 3059 3060 3061 3062 3064 3065 3066 3067 3068 3069 3069 3071 3072 3072 3073 3074 3075 3076 3077 3077 3078 3079 3079 3079 3079 3079 3079 3079 3080 3080 3081 3081 3082 3082 3082 3082 3082 3082 3083 3083 3083 3083 3084 3084 3084 3085 3085 3085 3086 3086 3086 3086 3086 3086 3086 3086 3086 3086 3085 3085 3084 3084 3083 3082 3082 3081
3053 3054 3056 3057 3059 3060 3061 3062 3064 3065 3066 3067 3067 3068 3069 3071 3072 3072 3073 3074 3075 3076 3077 3077 3077 3077 3077 3077 3077 3078 3078 3079 3079 3080 3080 3081 3081 3081 3081 3081 3082 3082 3082 3082 3083 3083 3083 3084 3084 3084 3085 3085 3085 3085 3086 3085 3085 3085 3085 3085 3084 3084 3084 3083 3082 3082 3081 3080 3079
3052 3053 3055 3056 3057 3059 3060 3061 3062 3063 3064 3065 3066 3067 3068 3069 3070 3071 3072 3073 3074 3075 3076 3076 3076 3076 3076 3076 3077 3077 3077 3078 3078 3079 3079 3080 3080 3080 3080 3080 3081 3081 3081 3082 3082 3082 3083 3083 3083 3084 3084 3084 3084 3085 3085 3084 3084 3084 3084 3083 3083 3083 3082 3082 3081 3080 3079 3079 3078
3050 3052 3053 3055 3056 3057 3058 3060 3061 3062 3063 3064 3065 3066 3067 3068 3069 3070 3071 3072 3073 3074 3074 3074 3075 3075 3075 3075 3076 3076 3077 3077 3078 3078 3079 3079 3079 3079 3079 3079 3080 3080 3081 3081 3082 3082 3082 3083 3083 3083 3084 3084 3084 3084 3083 3083 3083 3083 3082 3082 3082 3081 3081 3080 3079 3079 3078 3077 3076
3049 3050 3052 3053 3055 3056 3057 3058 3059 3060 3061 3062 3063 3065 3066 3067 3068 3069 3070 3071 3072 3072 3072 3073 3073 3074 3074 3075 3075 3076 3076 3077 3077 3077 3078 3078 3078 3078 3078 3079 3079 3080 3080 3081 3081 3082 3082 3082 3083 3083 3083 3083 3083 3082 3082 3082 3082 3081 3081 3081 3080 3080 3079 3079 3078 3077 3077 3076 3075
3047 3049 3050 3052 3053 3055 3056 3057 3058 3059 3060 3061 3062 3063 3065 3066 3067 3068 3069 3070 3070 3071 3071 3072 3072 3073 3073 3074 3074 3075 3075 3076 3076 3077 3077 3077 3077 3077 3077 3078 3079 3079 3080 3080 3081 3081 3082 3082 3082 3082 3082 3082 3082 3082 3081 3081 3081 3080 3080 3079 3079 3078 3078 3077 3077 3076 3075 3074 3073
3046 3047 3049 3051 3052 3053 3054 3055 3056 3057 3058 3060 3061 3062 3064 3065 3066 3067 3068 3068 3069 3069 3070 3071 3071 3072 3072 3073 3074 3074 3074 3075 3075 3075 3076 3076 3076 3077 3077 3078 3078 3079 3079 3080 3080 3081 3081 3081 3081 3081 3081 3081 3081 3081 3080 3080 3080 3079 3079 3078 3078 3077 3077 3076 3075 3074 3073 3072 3071
3045 3046 3048 3049 3051 3052 3053 3054 3055 3056 3057 3058 3060 3061 3062 3064 3065 3066 3066 3067 3068 3068 3069 3070 3070 3071 3072 3072 3073 3073 3073 3074 3074 3074 3075 3075 3076 3076 3077 3077 3078 3078 3079 3079 3080 3080 3080 3080 3080 3080 3080 3080 3080 3080 3079 3079 3079 3078 3077 3077 3077 3076 3075 3074 3074 3073 3072 3071 3069
3044 3045 3047 3048 3049 3050 3051 3052 3054 3055 3056 3057 3059 3060 3061 3062 3063 3064 3065 3066 3067 3067 3068 3069 3069 3070 3071 3071 3072 3072 3072 3073 3073 3073 3074 3075 3075 3076 3077 3077 3078 3078 3078 3079 3079 3079 3079 3079 3079 3079 3079 3079 3079 3079 3078 3078 3077 3077 3077 3076 3075 3074 3074 3073 3072 3071 3070 3069 3067
3043 3044 3045 3047 3047 3049 3050 3051 3052 3054 3055 3056 3058 3059 3060 3061 3062 3063 3064 3065 3065 3066 3067 3067 3068 3069 3070 3070 3071 3071 3072 3072 3072 3073 3073 3074 3075 3076 3076 3077 3077 3078 3078 3078 3078 3078 3078 3078 3078 3078 3078 3078 3078 3078 3077 3077 3076 3076 3075 3074 3074 3073 3072 3072 3071 3070 3069 3067 3066
3042 3043 3044 3045 3046 3047 3049 3050 3051 3053 3054 3055 3057 3058 3059 3060 3061 3062 3063 3063 3064 3065 3066 3067 3067 3068 3069 3069 3070 3070 3070 3071 3071 3072 3073 3074 3075 3075 3076 3077 3077 3077 3077 3077 3077 3077 3077 3077 3077 3077 3077 3077 3077 3077 3076 3076 3075 3074 3074 3073 3072 3072 3071 3070 3069 3069 3067 3066 3065
3040 3041 3042 3043 3045 3046 3048 3049 3050 3052 3053 3054 3056 3057 3058 3059 3060 3061 3062 3062 3063 3064 3065 3066 3067 3067 3068 3068 3069 3069 3069 3070 3071 3072 3072 3073 3074 3075 3075 3076 3076 3076 3077 3077 3077 3077 3077 3077 3077 3076 3076 3076 3075 3075 3075 3074 3073 3073 3072 3072 3071 3070 3070 3069 3068 3067 3066 3064 3063
3039 3040 3041 3042 3044 3045 3047 3048 3049 3051 3052 3053 3055 3056 3057 3058 3059 3060 3060 3061 3062 3063 3064 3065 3066 3066 3067 3067 3068 3068 3069 3069 3070 3071 3072 3073 3073 3074 3075 3075 3075 3075 3076 3076 3076 3076 3076 3076 3075 3075 3075 3074 3074 3073 3073 3073 3072 3071 3071 3070 3069 3069 3068 3067 3066 3065 3064 3062 3061
3037 3038 3040 3041 3043 3044 3046 3047 3048 3050 3051 3052 3053 3055 3056 3057 3057 3058 3059 3060 3061 3062 3063 3064 3065 3065 3066 3067 3067 3067 3068 3069 3070 3071 3072 3072 3073 3073 3074 3074 3074 3074 3075 3075 3075 3075 3075 3074 3074 3074 3073 3073 3072 3072 3072 3071 3071 3070 3069 3068 3068 3067 3066 3065 3064 3063 3062 3060 3059
3036 3037 3039 3040 3042 3043 3045 3046 3047 3049 3050 3051 3052 3053 3054 3055 3056 3057 3058 3059 3060 3061 3062 3063 3064 3064 3065 3066 3066 3067 3068 3069 3070 3070 3071 3072 3072 3072 3073 3073 3073 3073 3074 3074 3074 3073 3073 3073 3073 3072 3072 3072 3071 3071 3070 3070 3069 3068 3068 3067 3066 3065 3064 3063 3062 3061 3060 3059 3057
3035 3036 3038 3040 3041 3042 3044 3045 3047 3048 3049 3050 3051 3052 3053 3054 3055 3056 3057 3058 3059 3060 3061 3062 3063 3063 3064 3065 3066 3067 3067 3068 3069 3070 3071 3071 3072 3072 3072 3072 3072 3072 3072 3072 3072 3072 3072 3072 3072 3071 3071 3071 3070 3069 3069 3068 3068 3067 3066 3066 3065 3064 3063 3062 3061 3059 3058 3057 3056
3034 3035 3037 3038 3040 3042 3043 3044 3046 3047 3048 3049 3050 3051 3052 3053 3054 3055 3056 3057 3058 3060 3061 3061 3062 3063 3064 3065 3065 3066 3067 3068 3069 3069 3070 3070 3071 3071 3071 3071 3072 3072 3072 3072 3072 3071 3071 3071 3071 3070 3070 3069 3069 3068 3067 3067 3066 3066 3065 3064 3063 3062 3061 3060 3059 3058 3057 3055 3054
3033 3034 3036 3037 3039 3041 3042 3043 3044 3046 3047 3047 3048 3050 3051 3052 3053 3054 3056 3057 3058 3059 3060 3061 3062 3062 3063 3064 3065 3066 3067 3067 3068 3069 3069 3070 3070 3070 3070 3070 3071 3071 3071 3071 3070 3070 3070 3070 3069 3069 3069 3068 3067 3067 3067 3066 3065 3064 3063 3062 3062 3061 3060 3058 3057 3056 3055 3054 3053
3032 3033 3035 3037 3038 3039 3041 3042 3043 3044 3045 3046 3047 3048 3050 3051 3052 3054 3055 3056 3057 3058 3059 3060 3061 3062 3062 3063 3064 3065 3066 3067 3067 3068 3068 3069 3069 3069 3069 3069 3070 3070 3070 3069 3069 3069 3069 3068 3068 3068 3067 3067 3066 3066 3065 3064 3064 3063 3062 3061 3060 3059 3058 3057 3056 3055 3053 3052 3052
3031 3033 3034 3036 3037 3038 3040 3041 3042 3043 3044 3045 3046 3047 3049 3050 3052 3053 3054 3056 3057 3058 3059 3060 3060 3061 3062 3063 3064 3065 3066 3066 3067 3067 3067 3068 3068 3068 3068 3068 3069 3068 3068 3068 3068 3068 3068 3067 3067 3067 3066 3066 3065 3065 3064 3063 3062 3062 3061 3060 3059 3058 3057 3056 3054 3053 3052 3051 3050
3030 3032 3033 3035 3036 3037 3039 3040 3041 3042 3043 3044 3045 3047 3048 3049 3051 3052 3054 3055 3056 3057 3058 3059 3060 3061 3062 3062 3063 3064 3065 3066 3066 3066 3067 3067 3067 3067 3067 3067 3067 3067 3067 3067 3067 3067 3067 3066 3066 3065 3065 3064 3064 3063 3062 3062 3061 3060 3059 3058 3057 3056 3055 3054 3053 3052 3051 3050 3049
3029 3031 3032 3034 3035 3037 3037 3038 3040 3041 3042 3043 3044 3046 3047 3049 3051 3052 3053 3054 3056 3057 3057 3058 3059 3060 3061 3062 3063 3063 3064 3065 3065 3066 3066 3066 3067 3067 3067 3067 3066 3066 3066 3066 3066 3066 3065 3065 3065 3064 3064 3063 3062 3062 3061 3060 3060 3059 3058 3057 3056 3055 3054 3053 3052 3051 3050 3049 3048
3028 3030 3031 3033 3034 3035 3036 3037 3038 3040 3041 3042 3044 3045 3047 3048 3050 3052 3053 3054 3055 3056 3057 3058 3059 3060 3061 3061 3062 3062 3063 3064 3065 3065 3065 3065 3066 3066 3066 3065 3065 3065 3065 3065 3065 3064 3064 3064 3063 3063 3062 3062 3061 3061 3060 3059 3058 3057 3057 3056 3054 3053 3052 3052 3051 3050 3049 3048 3047
3027 3029 3030 3032 3033 3034 3035 3036 3037 3039 3040 3042 3043 3045 3047 3048 3050 3051 3052 3053 3054 3055 3056 3057 3058 3059 3060 3061 3061 3062 3062 3063 3064 3064 3064 3064 3064 3064 3064 3064 3064 3064 3064 3064 3063 3063 3063 3062 3062 3062 3061 3061 3060 3059 3059 3058 3057 3056 3055 3054 3053 3052 3051 3050 3050 3049 3048 3047 3046